Time,TemperatureF,DewpointF,PressureIn,WindDirection,WindDirectionDegrees,WindSpeedMPH,WindSpeedGustMPH,Humidity,HourlyPrecipIn,Conditions,Clouds,dailyrainin,SoftwareType,DateUTC
2013-02-01 00:06:00,43.7,44.0,30.33,ENE,70,0.0,1.0,100,0.00,,,0.00,weatherlink.com 1.10,2013-02-01 08:06:00,
2013-02-01 00:20:00,43.7,44.0,30.33,ENE,70,0.0,2.0,100,0.00,,,0.00,weatherlink.com 1.10,2013-02-01 08:20:00,
2013-02-01 00:35:00,43.8,44.0,30.33,ENE,70,0.0,1.0,100,0.00,,,0.00,weatherlink.com 1.10,2013-02-01 08:35:00,
2013-02-01 00:50:00,43.9,44.0,30.33,ENE,70,0.0,0.0,100,0.00,,,0.00,weatherlink.com 1.10,2013-02-01 08:50:00,
2013-02-01 01:05:00,43.9,44.0,30.34,ENE,70,0.0,0.0,100,0.00,,,0.00,weatherlink.com 1.10,2013-02-01 09:05:00,
2013-02-01 01:21:00,44.1,44.0,30.34,ENE,70,0.0,2.0,100,0.00,,,0.00,weatherlink.com 1.10,2013-02-01 09:21:00,
2013-02-01 01:36:00,44.3,44.0,30.34,ENE,70,0.0,2.0,100,0.00,,,0.00,weatherlink.com 1.10,2013-02-01 09:36:00,
2013-02-01 01:51:00,44.5,45.0,30.35,ENE,70,0.0,2.0,100,0.00,,,0.00,weatherlink.com 1.10,2013-02-01 09:51:00,
2013-02-01 02:06:00,44.5,45.0,30.35,West,277,0.0,3.0,100,0.00,,,0.00,weatherlink.com 1.10,2013-02-01 10:06:00,
2013-02-01 02:21:00,44.4,44.0,30.36,West,277,0.0,2.0,100,0.00,,,0.00,weatherlink.com 1.10,2013-02-01 10:21:00,
2013-02-01 02:36:00,44.3,44.0,30.35,West,277,0.0,1.0,100,0.00,,,0.00,weatherlink.com 1.10,2013-02-01 10:36:00,
2013-02-01 02:51:00,44.2,44.0,30.36,West,277,1.0,1.0,100,0.00,,,0.00,weatherlink.com 1.10,2013-02-01 10:51:00,
2013-02-01 03:06:00,44.2,44.0,30.36,West,277,0.0,2.0,100,0.00,,,0.00,weatherlink.com 1.10,2013-02-01 11:06:00,
2013-02-01 03:21:00,44.1,44.0,30.36,West,277,0.0,0.0,100,0.00,,,0.00,weatherlink.com 1.10,2013-02-01 11:21:00,
2013-02-01 03:36:00,44.0,44.0,30.36,West,277,0.0,1.0,100,0.00,,,0.00,weatherlink.com 1.10,2013-02-01 11:36:00,
2013-02-01 03:51:00,44.1,44.0,30.36,West,277,0.0,1.0,100,0.00,,,0.00,weatherlink.com 1.10,2013-02-01 11:51:00,
2013-02-01 04:06:00,44.1,44.0,30.37,West,277,0.0,1.0,100,0.00,,,0.00,weatherlink.com 1.10,2013-02-01 12:06:00,
2013-02-01 04:21:00,44.0,44.0,30.37,West,277,0.0,2.0,100,0.00,,,0.00,weatherlink.com 1.10,2013-02-01 12:21:00,
2013-02-01 04:36:00,43.9,44.0,30.37,West,277,1.0,2.0,100,0.00,,,0.00,weatherlink.com 1.10,2013-02-01 12:36:00,
2013-02-01 04:51:00,43.8,44.0,30.37,West,277,0.0,2.0,100,0.00,,,0.00,weatherlink.com 1.10,2013-02-01 12:51:00,
2013-02-01 05:21:00,43.8,44.0,30.37,West,277,0.0,0.0,100,0.00,,,0.00,weatherlink.com 1.10,2013-02-01 13:21:00,
2013-02-01 05:36:00,43.8,44.0,30.37,West,277,0.0,0.0,100,0.00,,,0.00,weatherlink.com 1.10,2013-02-01 13:36:00,
2013-02-01 05:51:00,43.8,44.0,30.37,West,277,0.0,0.0,100,0.00,,,0.00,weatherlink.com 1.10,2013-02-01 13:51:00,
2013-02-01 06:06:00,43.9,44.0,30.37,West,277,0.0,0.0,100,0.00,,,0.00,weatherlink.com 1.10,2013-02-01 14:06:00,
2013-02-01 06:21:00,43.8,44.0,30.38,West,277,0.0,1.0,100,0.00,,,0.00,weatherlink.com 1.10,2013-02-01 14:21:00,
2013-02-01 06:36:00,43.8,44.0,30.38,West,277,0.0,1.0,100,0.00,,,0.00,weatherlink.com 1.10,2013-02-01 14:36:00,
2013-02-01 06:51:00,43.7,44.0,30.38,West,277,0.0,1.0,100,0.00,,,0.00,weatherlink.com 1.10,2013-02-01 14:51:00,
2013-02-01 07:06:00,43.6,44.0,30.38,West,277,0.0,2.0,100,0.00,,,0.00,weatherlink.com 1.10,2013-02-01 15:06:00,
2013-02-01 07:21:00,43.6,44.0,30.38,West,277,0.0,1.0,100,0.00,,,0.00,weatherlink.com 1.10,2013-02-01 15:21:00,
2013-02-01 07:36:00,43.5,44.0,30.38,West,277,0.0,1.0,100,0.00,,,0.00,weatherlink.com 1.10,2013-02-01 15:36:00,
2013-02-01 07:51:00,43.4,43.0,30.38,West,277,0.0,0.0,100,0.00,,,0.00,weatherlink.com 1.10,2013-02-01 15:51:00,
2013-02-01 08:06:00,43.4,43.0,30.38,West,277,0.0,0.0,100,0.00,,,0.00,weatherlink.com 1.10,2013-02-01 16:06:00,
2013-02-01 08:21:00,43.5,44.0,30.39,West,277,0.0,0.0,100,0.00,,,0.00,weatherlink.com 1.10,2013-02-01 16:21:00,
2013-02-01 08:51:00,43.7,44.0,30.40,West,277,0.0,0.0,100,0.00,,,0.00,weatherlink.com 1.10,2013-02-01 16:51:00,
2013-02-01 09:06:00,43.9,44.0,30.41,West,277,0.0,1.0,100,0.00,,,0.00,weatherlink.com 1.10,2013-02-01 17:06:00,
2013-02-01 09:21:00,44.0,44.0,30.41,West,277,1.0,1.0,100,0.00,,,0.00,weatherlink.com 1.10,2013-02-01 17:21:00,
2013-02-01 09:36:00,44.0,44.0,30.41,West,277,1.0,3.0,100,0.00,,,0.00,weatherlink.com 1.10,2013-02-01 17:36:00,
2013-02-01 09:51:00,44.0,44.0,30.41,West,273,5.0,6.0,100,0.00,,,0.00,weatherlink.com 1.10,2013-02-01 17:51:00,
2013-02-01 10:06:00,44.1,44.0,30.42,WNW,289,0.0,3.0,100,0.00,,,0.00,weatherlink.com 1.10,2013-02-01 18:06:00,
2013-02-01 10:21:00,44.4,44.0,30.42,WNW,289,0.0,1.0,100,0.00,,,0.00,weatherlink.com 1.10,2013-02-01 18:21:00,
2013-02-01 10:37:00,44.8,45.0,30.42,WNW,289,1.0,1.0,100,0.00,,,0.00,weatherlink.com 1.10,2013-02-01 18:37:00,
2013-02-01 10:51:00,45.0,45.0,30.42,WNW,289,0.0,2.0,100,0.00,,,0.00,weatherlink.com 1.10,2013-02-01 18:51:00,
2013-02-01 11:07:00,45.4,45.0,30.43,WNW,289,0.0,2.0,100,0.00,,,0.00,weatherlink.com 1.10,2013-02-01 19:07:00,
2013-02-01 11:21:00,45.4,45.0,30.42,West,272,2.0,4.0,100,0.00,,,0.00,weatherlink.com 1.10,2013-02-01 19:21:00,
2013-02-01 11:36:00,45.1,45.0,30.42,West,278,4.0,4.0,100,0.00,,,0.00,weatherlink.com 1.10,2013-02-01 19:36:00,
2013-02-01 11:51:00,45.0,45.0,30.42,West,281,2.0,3.0,100,0.00,,,0.00,weatherlink.com 1.10,2013-02-01 19:51:00,
2013-02-01 12:06:00,45.0,45.0,30.41,West,277,1.0,4.0,100,0.00,,,0.00,weatherlink.com 1.10,2013-02-01 20:06:00,
2013-02-01 12:21:00,45.0,45.0,30.41,West,279,1.0,6.0,100,0.00,,,0.00,weatherlink.com 1.10,2013-02-01 20:21:00,
2013-02-01 12:36:00,45.0,45.0,30.41,West,273,0.0,4.0,99,0.00,,,0.00,weatherlink.com 1.10,2013-02-01 20:36:00,
2013-02-01 12:51:00,45.0,45.0,30.41,West,269,0.0,4.0,99,0.00,,,0.00,weatherlink.com 1.10,2013-02-01 20:51:00,
2013-02-01 13:06:00,45.3,45.0,30.41,West,269,1.0,3.0,99,0.00,,,0.00,weatherlink.com 1.10,2013-02-01 21:06:00,
2013-02-01 13:22:00,45.1,45.0,30.41,West,281,1.0,6.0,98,0.00,,,0.00,weatherlink.com 1.10,2013-02-01 21:22:00,
2013-02-01 13:37:00,45.4,45.0,30.40,West,281,3.0,5.0,98,0.00,,,0.00,weatherlink.com 1.10,2013-02-01 21:37:00,
2013-02-01 13:51:00,45.1,44.0,30.41,West,276,3.0,5.0,97,0.00,,,0.00,weatherlink.com 1.10,2013-02-01 21:51:00,
2013-02-01 14:07:00,44.9,44.0,30.40,West,275,0.0,4.0,97,0.00,,,0.00,weatherlink.com 1.10,2013-02-01 22:07:00,
2013-02-01 14:21:00,45.1,45.0,30.40,West,279,2.0,4.0,98,0.00,,,0.00,weatherlink.com 1.10,2013-02-01 22:21:00,
2013-02-01 14:37:00,45.1,44.0,30.40,West,281,3.0,5.0,97,0.00,,,0.00,weatherlink.com 1.10,2013-02-01 22:37:00,
2013-02-01 14:52:00,45.0,44.0,30.40,West,281,2.0,4.0,97,0.00,,,0.00,weatherlink.com 1.10,2013-02-01 22:52:00,
2013-02-01 15:07:00,45.0,44.0,30.41,West,266,4.0,6.0,96,0.00,,,0.00,weatherlink.com 1.10,2013-02-01 23:07:00,
2013-02-01 15:22:00,44.7,44.0,30.40,WNW,301,2.0,6.0,96,0.00,,,0.00,weatherlink.com 1.10,2013-02-01 23:22:00,
2013-02-01 15:37:00,44.6,44.0,30.41,WNW,283,4.0,6.0,96,0.00,,,0.00,weatherlink.com 1.10,2013-02-01 23:37:00,
2013-02-01 15:52:00,44.7,44.0,30.40,West,276,4.0,5.0,96,0.00,,,0.00,weatherlink.com 1.10,2013-02-01 23:52:00,
2013-02-01 16:07:00,44.8,44.0,30.40,WNW,287,3.0,4.0,96,0.00,,,0.00,weatherlink.com 1.10,2013-02-02 00:07:00,
2013-02-01 16:22:00,44.8,44.0,30.40,WNW,282,2.0,4.0,96,0.00,,,0.00,weatherlink.com 1.10,2013-02-02 00:22:00,
2013-02-01 16:37:00,44.6,43.0,30.40,West,271,0.0,3.0,95,0.00,,,0.00,weatherlink.com 1.10,2013-02-02 00:37:00,
2013-02-01 16:52:00,44.4,43.0,30.40,West,271,0.0,2.0,95,0.00,,,0.00,weatherlink.com 1.10,2013-02-02 00:52:00,
2013-02-01 17:07:00,44.1,43.0,30.41,West,271,1.0,1.0,95,0.00,,,0.00,weatherlink.com 1.10,2013-02-02 01:07:00,
2013-02-01 17:22:00,43.6,42.0,30.41,West,271,0.0,2.0,95,0.00,,,0.00,weatherlink.com 1.10,2013-02-02 01:22:00,
2013-02-01 17:37:00,43.4,42.0,30.41,West,271,0.0,2.0,95,0.00,,,0.00,weatherlink.com 1.10,2013-02-02 01:37:00,
2013-02-01 17:52:00,43.2,42.0,30.41,West,272,2.0,3.0,96,0.00,,,0.00,weatherlink.com 1.10,2013-02-02 01:52:00,
2013-02-01 18:07:00,43.2,42.0,30.41,West,272,1.0,3.0,96,0.00,,,0.00,weatherlink.com 1.10,2013-02-02 02:07:00,
2013-02-01 18:22:00,43.2,42.0,30.41,West,264,1.0,5.0,96,0.00,,,0.00,weatherlink.com 1.10,2013-02-02 02:22:00,
2013-02-01 18:37:00,43.2,42.0,30.41,WNW,285,2.0,4.0,96,0.00,,,0.00,weatherlink.com 1.10,2013-02-02 02:37:00,
2013-02-01 18:52:00,43.1,42.0,30.41,WNW,285,2.0,5.0,96,0.00,,,0.00,weatherlink.com 1.10,2013-02-02 02:52:00,
2013-02-01 19:07:00,43.0,42.0,30.41,West,277,2.0,6.0,96,0.00,,,0.00,weatherlink.com 1.10,2013-02-02 03:07:00,
2013-02-01 19:22:00,42.9,42.0,30.41,WNW,290,0.0,4.0,96,0.00,,,0.00,weatherlink.com 1.10,2013-02-02 03:22:00,
2013-02-01 19:37:00,42.8,42.0,30.41,WNW,289,1.0,4.0,96,0.00,,,0.00,weatherlink.com 1.10,2013-02-02 03:37:00,
2013-02-01 19:52:00,42.8,42.0,30.41,West,281,1.0,5.0,96,0.00,,,0.00,weatherlink.com 1.10,2013-02-02 03:52:00,
2013-02-01 20:07:00,42.7,42.0,30.41,WNW,296,2.0,3.0,96,0.00,,,0.00,weatherlink.com 1.10,2013-02-02 04:07:00,
2013-02-01 20:22:00,42.7,42.0,30.41,WNW,294,1.0,3.0,96,0.00,,,0.00,weatherlink.com 1.10,2013-02-02 04:22:00,
2013-02-01 20:37:00,42.7,42.0,30.41,WNW,282,4.0,4.0,96,0.00,,,0.00,weatherlink.com 1.10,2013-02-02 04:37:00,
2013-02-01 20:52:00,42.7,42.0,30.40,WNW,289,2.0,5.0,97,0.00,,,0.00,weatherlink.com 1.10,2013-02-02 04:52:00,
2013-02-01 21:07:00,42.8,42.0,30.40,WNW,294,0.0,6.0,97,0.00,,,0.00,weatherlink.com 1.10,2013-02-02 05:07:00,
2013-02-01 21:22:00,42.9,42.0,30.41,WNW,286,1.0,4.0,98,0.00,,,0.00,weatherlink.com 1.10,2013-02-02 05:22:00,
2013-02-01 21:37:00,43.0,43.0,30.41,WNW,284,4.0,5.0,98,0.00,,,0.00,weatherlink.com 1.10,2013-02-02 05:37:00,
2013-02-01 21:52:00,43.0,43.0,30.41,WNW,287,2.0,5.0,98,0.00,,,0.00,weatherlink.com 1.10,2013-02-02 05:52:00,
2013-02-01 22:07:00,43.0,43.0,30.41,WNW,287,3.0,3.0,98,0.00,,,0.00,weatherlink.com 1.10,2013-02-02 06:07:00,
2013-02-01 22:22:00,42.9,42.0,30.41,WNW,287,2.0,4.0,98,0.00,,,0.00,weatherlink.com 1.10,2013-02-02 06:22:00,
2013-02-01 22:37:00,42.7,42.0,30.41,WNW,288,1.0,4.0,98,0.00,,,0.00,weatherlink.com 1.10,2013-02-02 06:37:00,
2013-02-01 22:52:00,42.6,42.0,30.41,WNW,288,3.0,4.0,98,0.00,,,0.00,weatherlink.com 1.10,2013-02-02 06:52:00,
2013-02-01 23:07:00,42.6,42.0,30.41,WNW,288,2.0,4.0,98,0.00,,,0.00,weatherlink.com 1.10,2013-02-02 07:07:00,
2013-02-01 23:22:00,42.6,42.0,30.41,WNW,288,1.0,4.0,98,0.00,,,0.00,weatherlink.com 1.10,2013-02-02 07:22:00,
2013-02-01 23:37:00,42.6,42.0,30.41,WNW,296,1.0,5.0,99,0.00,,,0.00,weatherlink.com 1.10,2013-02-02 07:37:00,
2013-02-01 23:52:00,42.7,43.0,30.41,WNW,283,3.0,4.0,99,0.00,,,0.00,weatherlink.com 1.10,2013-02-02 07:52:00,